Regional Weather Roundup
Issued by NWS

Home | Current Version | Previous Version | Text Only | Print | Product List | Glossary On
Versions: 1 2 3 4 5 6 7 8 9 10 11 12 13 14 15 16 17 18 19 20 21 22 23 24 25 26 27 28 29 30 31 32 33 34 35 36 37 38 39 40 41 42 43 44 45 46 47 48 49 50
000
ASUS45 KCYS 310410
RWRWY

WYOMING REGIONAL WEATHER ROUNDUP
NATIONAL WEATHER SERVICE CHEYENNE WY
900 PM MST FRI JAN 30 2015

NOTE:  "FAIR" INDICATES FEW OR NO CLOUDS BELOW 12,000 FEET
WITH NO SIGNIFICANT WEATHER AND/OR OBSTRUCTIONS TO VISIBILITY.

WYZ001-310500-
YELLOWSTONE NATIONAL PARK

CITY           SKY/WX    TMP DP  RH WIND       PRES   REMARKS
LK YELLOWSTONE   N/A      3   0  87 CALM      30.12F
W YELLOWSTONE  NOT AVBL

$$
WYZ002>013-054>058-071-098>099-310500-
NORTHERN WYOMING

CITY           SKY/WX    TMP DP  RH WIND       PRES   REMARKS
JACKSON        FAIR      12  10  92 N6        30.11S WCI   3
CODY           FAIR      30  23  74 S3        30.09S
GREYBULL       FOG       27  26  96 CALM      30.13F VSB 1/4
WORLAND        FAIR      22  19  89 S3        30.12F
SHERIDAN       FAIR      27  19  72 CALM      30.07F
BUFFALO        FAIR      32  18  56 S8        30.09F WCI  25
GILLETTE       FAIR      27  23  85 S7        30.10F WCI  19
HULETT           N/A    N/A N/A N/A MISG        N/A
NEWCASTLE      FAIR      30  25  80 SE6       30.10F WCI  24

$$
WYZ014>020-022>026-101>103-310500-
CENTRAL WYOMING

CITY           SKY/WX    TMP DP  RH WIND       PRES   REMARKS
BIG PINEY      CLOUDY    27  22  81 CALM      30.08F
PINEDALE       CLOUDY    27  21  80 W6        30.07F WCI  20
DUBOIS         FAIR      28  19  69 SW3       30.10S
LANDER         FAIR      34  22  61 W3        30.09F
RIVERTON       FAIR      32  27  81 CALM      30.10F
CASPER         FAIR      27  22  81 CALM      30.09F
DOUGLAS        FAIR      29  23  78 CALM      30.10F

$$
WYZ021-027>030-104>119-310500-
SOUTHERN WYOMING

CITY           SKY/WX    TMP DP  RH WIND       PRES   REMARKS
EVANSTON       LGT SNOW  32  29  88 N7        30.03F FOG     WCI  26
KEMMERER       CLOUDY    32  27  80 NE17      30.05S WCI  21
FORT BRIDGER   SNOW      33  33 100 NE6       30.06S VSB 1/2 WCI  27
ROCK SPRINGS   CLOUDY    30  27  88 NE18      30.03F WCI  18
DIXON          CLOUDY    37  32  81 NE8       30.00F WCI  31
RAWLINS        CLOUDY    33  23  66 NE8       30.05F WCI  26
SARATOGA       CLOUDY    34  32  93 S3        30.03S
LARAMIE        CLOUDY    30  26  85 SE3       30.06F
CHEYENNE       CLOUDY    35  20  54 N10       30.07S WCI  27
TORRINGTON     FAIR      37  26  64 N9        30.08F WCI  30
PINE BLUFFS    MOCLDY    32  27  80 NW6       30.07S WCI  26

$$



USA.gov is the U.S. government's official web portal to all federal, state and local government web resources and services.